Location: Unspecified
(0.0000°N, 0.0000°E)
Time: 08:55:18
(UTC+00:00)

Vanguard 2 - Pass Details

Date: 27 October 2021
Orbit: 554 x 2936 km, 32.9° (Epoch: 06 December)

Event Time Altitude Azimuth Distance (km) Brightness Sun altitude
Rises 21:59:52 0° 249° (WSW) 6,524 12.7 -61.1°
Reaches altitude 10° 22:04:13 10° 253° (WSW) 5,653 12.2 -62.1°
Enters shadow 22:14:01 37° 275° (W) 3,954 11.0 -64.2°
Maximum altitude 22:21:14 51° 324° (NW) 3,332 - -65.7°
Drops below altitude 10° 22:35:51 10° 37° (NE) 4,882 - -68.7°
Sets 22:39:20 0° 43° (NE) 5,612 - -69.3°
